INTELSAT 33E DEB, 64411

Orbit data source: Space-Track

INTELSAT 33E DEB, 64411 is space debris in GEO originally from a launch on Wed, 24 Aug 2016 UTC launched from the French Guiana (FRGUI). Debris objects in space refer to the collection of defunct objects orbiting the Earth. Examples of debris include non-operational satellites, rocket bodies, and fragments generated from explosions, collisions, or faulty payload assembly.

Not visible in the next 10 days
Identifier
64411, 2016-053AR
Orbit
GEO
Country
Flag of USUS / ITSO
Related business
Manufacturer
Boeing/ES
Mission
Spacecraft
Bus & Motor
Unknown
Mass
Unknown
Launch date (UTC)
2016-08-24 (10 years ago)
Launch vehicle
Unknown
Launch site
French Guiana (FRGUI)
Object type
Payload
Rocket body
Debris
Shape & HBR
Unknown shape, 1.1 m
Radar Cross Section
RCS unknown

Expand to show TLE details & history
Last TLE update: 1 day ago

TLE from 1 day ago
0 INTELSAT 33E DEB
1 64411U 16053AR  26165.48440077 -.00000106  00000-0  00000-0 0  9993
2 64411   1.3990  59.0283 0122566 353.9320   4.9136  1.00892949  5914
Epoch: 2026-06-14T11:37Z
TLE epoch observation values (Epoch: 2026-06-14T11:37:32.226Z)
Latitude
Longitude
-19.17957°
Altitude
35,098.343 km
Speed
3.119 km/s
True Right ascension
03h 51m 57s
True Declination
0° 00' 00"
Sunlit
Object was in daylight at epoch
Visualization orbit readout
Latitude
Unknown
Longitude
Unknown
Altitude
Unknown
Speed
Unknown
Apparent Right ascension
Unknown
Apparent Declination
Unknown
Sunlit
N/A
Visualization observer readout
Local Sidereal Time
04:13:58
Azimuth
Unknown
Elevation
Unknown
Doppler factor
Unknown
Orbital elements
Apogee altitude
36,129.114 km
Perigee altitude
35,099.742 km
Semi-major axis
41,992.565 km
Eccentricity
0.01226
Inclination
1.399°
RAAN
59.0283°
Arg. of periapsis
353.932°
True anomaly
5.03576°
Mean anomaly
4.9136°
Eccentric anomaly
4.97449°
Mean motion
0.25222 °/min
Orbital period
1,427.31 mins
BSTAR
0
Loading maneuver chart data...
Computing Atmospheric mass density...
Loading historical data...
Loading historical data...
Loading historical data...
Loading historical data...
Loading historical data...
Loading historical data...
Loading historical data...

Documentation

Showing up to 5 results
|